Hilton Head Island, SC

4:15 PM EST on February 14, 2016 (GMT -0500)
Hilton Head

Weather History for KHXD - July, 2013

Change the Weather History Date:

Tuesday, July 30, 2013

  Actual Average Record
Temperature  
Mean Temperature 80 °F -  
Max Temperature 87 °F 89 °F 98 °F (1961)
Min Temperature 73 °F 72 °F 62 °F (1984)
Cooling Degree Days 15    
Growing Degree Days 30 (Base 50)    
Moisture  
Dew Point 75 °F    
Average Humidity 92    
Maximum Humidity 100    
Minimum Humidity 66    
Precipitation  
Precipitation 0.00 in - - ()
Sea Level Pressure  
Sea Level Pressure 30.15 in    
Wind  
Wind Speed 2 mph (South)    
Max Wind Speed 7 mph    
Max Gust Speed -    
Visibility 8 miles    
Events      
Averages and records for this station are not official NWS values.
T = Trace of Precipitation, MM = Missing Value Source: NWS Daily Summary

Daily Weather History Graph

Daily Weather History Graph

Search for Another Location

Airport or City:

Trip Planner

Search our weather history database for the weather conditions in past years. The results will help you decide how hot, cold, wet, or windy it might be!

Date:

Astronomy

Jul. 30, 2013 Rise Set
Actual Time 6:36 AM EDT 8:21 PM EDT
Civil Twilight 6:09 AM EDT 8:48 PM EDT
Nautical Twilight 5:37 AM EDT 9:20 PM EDT
Astronomical Twilight 5:03 AM EDT 9:54 PM EDT
Moon 12:50 AM EDT (7/30) 2:41 PM EDT (7/30)
Length of Visible Light 14h 38m
Length of Day
13h 44m
Last Quarter, 41% of the Moon is Illuminated
Jul 30
Last Quarter
Aug 6
New
Aug 14
First Quarter
Aug 20
Full
Aug 28
Last Quarter

Hourly Weather History & Observations

Time (EDT) Temp. Heat Index Dew Point Humidity Pressure Visibility Wind Dir Wind Speed Gust Speed Precip Events Conditions
12:15 AM 73.4 °F - 73.4 °F 100% 30.16 in 10.0 mi South 3.5 mph - 0.00 in   Light Drizzle
12:35 AM 73.4 °F - 73.4 °F 100% 30.16 in 9.0 mi Calm Calm - 0.00 in   Clear
12:55 AM 73.4 °F - 73.4 °F 100% 30.16 in 7.0 mi Calm Calm - 0.00 in   Clear
1:15 AM 73.4 °F - 73.4 °F 100% 30.16 in 8.0 mi South 3.5 mph - 0.00 in   Clear
1:35 AM 73.4 °F - 73.4 °F 100% 30.16 in 9.0 mi SSW 3.5 mph - 0.00 in   Clear
1:55 AM 73.4 °F - 73.4 °F 100% 30.16 in 8.0 mi Calm Calm - 0.00 in   Clear
2:15 AM 73.4 °F - 73.4 °F 100% 30.15 in 7.0 mi Calm Calm - 0.00 in   Clear
2:35 AM 73.4 °F - 73.4 °F 100% 30.15 in 5.0 mi Calm Calm - 0.00 in   Clear
2:55 AM 73.4 °F - 73.4 °F 100% 30.15 in 6.0 mi Calm Calm - 0.00 in   Clear
3:15 AM 73.4 °F - 73.4 °F 100% 30.14 in 5.0 mi Calm Calm - 0.00 in   Clear
3:35 AM 73.4 °F - 73.4 °F 100% 30.14 in 5.0 mi Calm Calm - 0.00 in   Clear
3:55 AM 73.4 °F - 73.4 °F 100% 30.14 in 6.0 mi Calm Calm - 0.00 in   Clear
4:15 AM 75.2 °F - 75.2 °F 100% 30.14 in 5.0 mi Calm Calm - 0.00 in   Clear
4:35 AM 75.2 °F - 75.2 °F 100% 30.13 in 5.0 mi Calm Calm - 0.00 in   Clear
4:55 AM 75.2 °F - 75.2 °F 100% 30.13 in 2.5 mi Calm Calm - 0.00 in   Clear
5:15 AM 75.2 °F - 75.2 °F 100% 30.13 in 2.5 mi South 3.5 mph - 0.00 in   Clear
5:35 AM 75.2 °F - 75.2 °F 100% 30.13 in 1.8 mi Calm Calm - 0.00 in   Clear
5:55 AM 75.2 °F - 75.2 °F 100% 30.14 in 1.5 mi South 3.5 mph - 0.00 in   Clear
6:15 AM 75.2 °F - 75.2 °F 100% 30.14 in 1.5 mi South 3.5 mph - 0.00 in   Clear
6:35 AM 75.2 °F - 75.2 °F 100% 30.15 in 2.0 mi Calm Calm - 0.00 in   Clear
6:50 AM 77.0 °F - 73.4 °F 89% 30.16 in 7.0 mi Calm Calm - N/A   Scattered Clouds
7:50 AM 78.8 °F - 75.2 °F 89% 30.17 in 7.0 mi Calm Calm - N/A   Scattered Clouds
8:50 AM 78.8 °F - 73.4 °F 83% 30.18 in 10.0 mi SSW 5.8 mph - N/A   Clear
9:50 AM 82.4 °F 88.2 °F 73.4 °F 74% 30.18 in 10.0 mi West 4.6 mph - N/A   Scattered Clouds
10:50 AM 82.4 °F 89.5 °F 75.2 °F 79% 30.18 in 10.0 mi NNW 5.8 mph - N/A   Scattered Clouds
11:50 AM 84.2 °F 92.3 °F 75.2 °F 74% 30.18 in 10.0 mi NNW 5.8 mph - N/A   Partly Cloudy
12:50 PM 87.8 °F 97.6 °F 75.2 °F 66% 30.17 in 10.0 mi North 6.9 mph - N/A   Scattered Clouds
1:50 PM 82.4 °F 89.5 °F 75.2 °F 79% 30.16 in 10.0 mi East 3.5 mph - N/A   Mostly Cloudy
2:50 PM 84.2 °F 92.3 °F 75.2 °F 74% 30.15 in 10.0 mi SE 6.9 mph - N/A   Scattered Clouds
4:50 PM 84.2 °F 92.3 °F 75.2 °F 74% 30.13 in 10.0 mi ESE 6.9 mph - N/A   Clear
5:50 PM 86.0 °F 95.1 °F 75.2 °F 70% 30.12 in 10.0 mi SE 4.6 mph - N/A   Clear
6:50 PM 84.2 °F 92.3 °F 75.2 °F 74% 30.13 in 10.0 mi South 5.8 mph - N/A   Clear
7:50 PM 82.4 °F 89.5 °F 75.2 °F 79% 30.13 in 10.0 mi South 5.8 mph - N/A   Clear
9:15 PM 82.4 °F 92.4 °F 78.8 °F 89% 30.14 in 10.0 mi South 3.5 mph - 0.00 in   Clear
9:35 PM 82.4 °F 92.4 °F 78.8 °F 89% 30.14 in 10.0 mi South 4.6 mph - 0.00 in   Clear
9:55 PM 80.6 °F 88.1 °F 78.8 °F 94% 30.14 in 10.0 mi Calm Calm - 0.00 in   Clear
10:15 PM 80.6 °F 88.1 °F 78.8 °F 94% 30.15 in 10.0 mi South 3.5 mph - 0.00 in   Clear
10:35 PM 80.6 °F 88.1 °F 78.8 °F 94% 30.15 in 10.0 mi South 3.5 mph - 0.00 in   Clear
10:55 PM 80.6 °F 88.1 °F 78.8 °F 94% 30.15 in 10.0 mi SSW 3.5 mph - 0.00 in   Clear
11:15 PM 80.6 °F 88.1 °F 78.8 °F 94% 30.15 in 10.0 mi SSW 3.5 mph - 0.00 in   Clear
11:35 PM 78.8 °F - 78.8 °F 100% 30.15 in 10.0 mi SSW 3.5 mph - 0.00 in   Clear
11:55 PM 78.8 °F - 78.8 °F 100% 30.15 in 10.0 mi SSW 5.8 mph - 0.00 in   Clear